Location: Ergnies
(50.0854°N, 2.0375°E)
Time: 08:55:44
(UTC+00:00)

Cosmos 2082 Rocket - Pass Details

Date: 14 January 2026
Orbit: 831 x 853 km, 71.0° (Epoch: 18 February)

Event Time Altitude Azimuth Distance (km) Brightness Sun altitude
Exits shadow 05:08:53 18° 348° (NNW) 1,991 4.0 -24.4°
Maximum altitude 05:12:47 41° 50° (NE) 1,221 3.3 -23.8°
Drops below altitude 10° 05:18:07 10° 120° (ESE) 2,471 5.5 -22.9°
Sets 05:20:43 0° 128° (SE) 3,406 6.3 -22.5°
